Temp
43 43 43 42 42 42 43 44 45 47 48 48 50 52 53 55 54 54 53 53 53 52
42 42 42 42 43 43 43 45 46 46 47 49 50 52 53 55 54 54 54 53 52 52
41 42 42 42 42 43 44 45 45 46 47 48 50 51 53 54 54 54 54 53 52 52
41 41 42 42 43 44 46 46 46 46 47 49 50 50 52 54 54 54 53 53 53 52
41 41 41 42 45 46 46 47 46 47 48 50 51 50 53 54 55 54 53 53 53 53
40 40 42 45 45 45 45 46 47 47 48 50 50 51 53 54 54 54 54 55 54 53
39 41 44 44 44 44 45 46 47 48 49 49 51 52 54 53 53 53 53 52 53 53
40 44 44 43 44 44 45 46 48 48 49 49 50 51 53 52 52 52 50 49 49 51
41 43 42 42 43 44 44 45 45 45 45 45 45 43 45 49 50 49 48 45 43 43
41 41 41 42 43 43 43 43 43 43 43 42 42 42 43 42 47 46 45 44 42 40
39 38 38 38 42 42 42 41 41 41 41 41 40 41 41 40 43 42 41 41 42 41
39 38 37 39 40 40 40 40 39 39 40 39 39 40 40 41 40 38 37 38 39 40
38 37 38 37 37 36 36 35 35 34 35 34 38 40 40 41 39 36 35 35 36 36
37 37 38 36 36 35 35 34 34 34 34 34 35 38 40 40 39 37 35 35 34 35
MSLP
1017.96 1018.33 1018.37 1018.33 1018.28 1018.21 1017.93 1017.64 1017.42 1016.96 1016.38 1016.00 1015.74 1015.34 1014.97 1014.89 1015.03 1015.33 1015.62 1016.25 1016.89 1017.65
1017.98 1018.13 1018.20 1018.21 1018.31 1018.08 1017.48 1017.46 1017.30 1017.05 1016.49 1016.14 1015.80 1015.48 1015.19 1015.21 1015.51 1015.81 1016.21 1016.74 1017.26 1017.83
1017.89 1018.01 1018.19 1018.10 1018.08 1017.89 1017.77 1017.39 1017.23 1016.97 1016.61 1016.38 1015.99 1015.63 1015.43 1015.30 1015.74 1016.23 1016.66 1017.02 1017.49 1018.18
1017.71 1018.02 1018.01 1018.07 1017.89 1017.71 1017.36 1017.16 1017.14 1016.90 1016.73 1016.40 1015.96 1015.78 1015.62 1015.49 1015.75 1016.17 1016.65 1017.17 1017.50 1018.16
1017.74 1017.83 1017.95 1017.87 1017.46 1017.41 1017.13 1017.05 1016.87 1016.82 1016.58 1016.13 1016.10 1015.89 1015.70 1015.86 1016.09 1016.43 1016.86 1017.39 1017.92 1018.49
1017.63 1017.70 1017.57 1017.45 1017.32 1017.14 1017.07 1016.83 1016.75 1016.75 1016.57 1016.32 1016.08 1015.91 1015.83 1016.07 1016.36 1016.74 1017.23 1017.72 1018.21 1018.68
1017.35 1017.33 1017.21 1017.21 1017.10 1016.89 1016.80 1016.73 1016.60 1016.55 1016.45 1016.30 1016.12 1015.85 1016.02 1016.36 1016.76 1017.20 1017.63 1017.98 1018.49 1018.88
1017.02 1016.98 1016.95 1016.85 1016.83 1016.74 1016.70 1016.58 1016.53 1016.54 1016.68 1016.45 1016.21 1016.19 1016.43 1016.70 1017.08 1017.44 1017.95 1018.43 1018.88 1019.27
1016.79 1016.73 1016.74 1016.75 1016.70 1016.60 1016.79 1016.83 1016.77 1016.66 1016.73 1016.50 1016.61 1016.58 1016.64 1017.02 1017.59 1018.08 1018.64 1019.33 1019.70 1019.92
1016.58 1016.71 1016.73 1016.77 1016.72 1016.69 1016.88 1017.06 1017.25 1017.20 1017.07 1017.14 1017.16 1017.08 1017.17 1017.39 1017.95 1018.47 1018.91 1019.53 1020.07 1020.64
1016.49 1016.66 1016.86 1016.95 1016.82 1016.98 1017.14 1017.31 1017.63 1017.88 1017.73 1017.67 1017.86 1017.80 1017.72 1018.03 1018.57 1019.21 1019.75 1020.18 1020.52 1020.90
1016.06 1016.50 1016.76 1016.93 1017.13 1017.32 1017.57 1017.68 1017.94 1018.23 1018.28 1018.29 1018.41 1018.42 1018.51 1018.53 1019.32 1019.97 1020.60 1020.87 1021.27 1021.52
1015.60 1016.25 1016.57 1016.86 1017.27 1017.49 1017.88 1018.29 1018.46 1018.78 1018.90 1019.06 1018.93 1018.97 1019.12 1019.11 1019.67 1020.42 1021.06 1021.65 1022.09 1022.29
1015.34 1015.96 1016.37 1016.90 1017.34 1017.74 1018.06 1018.50 1018.82 1019.10 1019.47 1019.62 1019.39 1019.61 1019.59 1019.76 1020.02 1020.62 1021.41 1022.15 1022.83 1023.22
Wind_Speed
3 1 1 1 1 2 3 4 5 6 7 6 6 5 4 4 5 7 7 10 8 8
2 3 2 2 1 2 5 3 5 5 6 6 6 4 5 4 6 6 7 8 9 7
3 2 2 2 2 4 4 4 4 5 5 5 5 4 3 3 7 7 6 6 10 8
3 1 2 2 3 4 4 4 4 5 5 4 3 3 3 4 7 9 7 7 7 8
2 1 2 3 3 3 5 4 4 4 5 5 3 3 1 6 7 8 9 8 8 9
3 3 3 3 2 2 4 4 4 4 5 4 3 3 3 6 8 8 8 8 9 9
4 4 3 2 2 2 3 3 3 4 4 4 3 1 6 7 7 7 6 6 7 7
4 4 1 2 1 1 2 1 3 2 3 2 2 3 7 6 7 9 7 6 6 5
4 3 2 2 1 4 2 3 3 3 3 3 2 5 10 9 7 7 8 7 6 7
4 4 3 3 3 5 4 4 4 4 4 5 5 7 11 12 6 6 6 7 7 7
5 4 3 3 4 4 3 4 3 4 4 6 5 8 12 13 9 8 7 6 7 10
7 6 5 5 5 4 3 3 4 4 5 6 6 10 9 13 8 10 9 7 7 8
7 6 6 6 5 3 4 4 4 6 6 5 7 10 9 11 8 10 8 8 9 13
7 6 6 7 4 5 7 6 6 7 5 5 6 8 11 11 8 9 9 8 6 6
Wind_Direction
153 125 271 242 202 298 297 308 322 321 321 335 340 344 346 102 102 119 120 121 115 123
170 164 238 287 336 276 275 311 319 311 317 323 330 342 350 117 117 113 125 115 117 121
198 193 256 271 298 287 303 310 310 302 302 316 317 328 352 93 131 123 122 125 127 131
221 185 271 273 296 284 278 288 295 293 301 300 326 335 310 111 130 139 134 127 126 116
228 213 267 269 263 290 288 287 266 278 282 296 300 294 14 116 123 127 131 129 124 126
206 230 253 268 298 288 273 254 257 249 252 241 248 275 213 117 124 124 128 133 135 135
202 232 246 271 263 275 273 255 221 219 223 227 229 116 117 111 117 111 114 114 126 135
200 236 272 305 287 80 279 258 200 193 215 191 144 121 122 115 113 112 98 73 76 100
199 214 231 218 171 94 77 88 93 78 44 55 68 126 124 125 122 111 114 105 83 87
189 183 201 176 142 107 96 92 86 75 87 62 35 96 107 100 102 109 104 113 114 90
179 173 175 163 135 110 98 97 96 75 76 84 60 72 96 91 98 91 85 99 119 123
170 172 169 162 142 102 112 101 77 70 77 88 86 95 102 106 97 87 72 65 64 109
161 169 170 150 142 114 105 104 97 83 58 58 88 92 107 112 114 101 96 78 75 74
157 168 155 140 137 129 117 104 91 90 68 63 64 75 95 109 114 119 111 99 87 88